Three Rivers, MI

7:50 PM EDT on August 22, 2017 (GMT -0400)
Three Rivers Municipal-Haines

Weather History for KHAI - June, 2012

Change the Weather History Date:

Sunday, June 10, 2012

  Actual Average Record
Temperature  
Mean Temperature 74 °F -  
Max Temperature 90 °F 78 °F 94 °F (1956)
Min Temperature 57 °F 53 °F 39 °F (1977)
Cooling Degree Days 8    
Growing Degree Days 24 (Base 50)    
Moisture  
Dew Point 54 °F    
Average Humidity 48    
Maximum Humidity 86    
Minimum Humidity 24    
Precipitation  
Precipitation 0.00 in - - ()
Sea Level Pressure  
Sea Level Pressure 29.99 in    
Wind  
Wind Speed 2 mph (South)    
Max Wind Speed 13 mph    
Max Gust Speed 20 mph    
Visibility 10 miles    
Events      
Averages and records for this station are not official NWS values.
T = Trace of Precipitation, MM = Missing Value Source: NWS Daily Summary

Daily Weather History Graph

Daily Weather History Graph

Search for Another Location

Airport or City:

Trip Planner

Search our weather history database for the weather conditions in past years. The results will help you decide how hot, cold, wet, or windy it might be!

Date:

Astronomy

Jun. 10, 2012 Rise Set
Actual Time 6:06 AM EDT 9:17 PM EDT
Civil Twilight 5:32 AM EDT 9:51 PM EDT
Nautical Twilight 4:48 AM EDT 10:35 PM EDT
Astronomical Twilight 3:55 AM EDT 11:28 PM EDT
Moon 1:04 AM EDT (6/10) 1:00 PM EDT (6/10)
Length of Visible Light 16h 19m
Length of Day
15h 10m
Waning Gibbous, 58% of the Moon is Illuminated
Jun 10
Waning Gibbous
Jun 11
Last Quarter
Jun 19
New
Jun 26
First Quarter
Jul 3
Full

Hourly Weather History & Observations

Time (EDT) Temp. Heat Index Dew Point Humidity Pressure Visibility Wind Dir Wind Speed Gust Speed Precip Events Conditions
12:14 AM 68.9 °F - 54.1 °F 59% 29.95 in 10.0 mi Calm Calm - N/A   Clear
12:34 AM 68.7 °F - 53.8 °F 59% 29.95 in 10.0 mi Calm Calm - N/A   Clear
1:14 AM 67.3 °F - 55.2 °F 65% 29.96 in 5.0 mi Calm Calm - N/A   Haze
1:34 AM 65.7 °F - 54.9 °F 68% 29.97 in 10.0 mi Calm Calm - N/A   Clear
1:54 AM 65.5 °F - 55.2 °F 69% 29.97 in 10.0 mi Calm Calm - N/A   Clear
2:14 AM 64.8 °F - 55.2 °F 71% 29.97 in 10.0 mi South 3.5 mph - N/A   Clear
2:34 AM 65.3 °F - 53.8 °F 66% 29.97 in 10.0 mi Calm Calm - N/A   Clear
2:53 AM 64.9 °F - 53.6 °F 67% 29.97 in 10.0 mi Calm Calm - N/A   Clear
3:14 AM 64.4 °F - 52.7 °F 66% 29.97 in 10.0 mi Calm Calm - N/A   Clear
3:34 AM 63.9 °F - 52.7 °F 67% 29.97 in 10.0 mi Calm Calm - N/A   Clear
3:55 AM 60.8 °F - 52.5 °F 74% 29.97 in 10.0 mi Calm Calm - N/A   Clear
4:14 AM 59.2 °F - 52.3 °F 78% 29.98 in 10.0 mi Calm Calm - N/A   Clear
4:34 AM 59.9 °F - 55.6 °F 86% 29.98 in 10.0 mi Calm Calm - N/A   Clear
4:54 AM 61.3 °F - 54.9 °F 79% 29.99 in 10.0 mi Calm Calm - N/A   Clear
5:14 AM 57.4 °F - 52.3 °F 83% 29.99 in 10.0 mi Calm Calm - N/A   Clear
5:34 AM 58.3 °F - 53.4 °F 84% 30.00 in 10.0 mi Calm Calm - N/A   Clear
5:54 AM 58.3 °F - 52.7 °F 82% 30.00 in 10.0 mi Calm Calm - N/A   Clear
6:14 AM 58.1 °F - 53.6 °F 85% 30.01 in 10.0 mi Calm Calm - N/A   Clear
6:33 AM 60.1 °F - 53.4 °F 79% 30.01 in 10.0 mi Calm Calm - N/A   Clear
6:54 AM 60.8 °F - 54.0 °F 78% 30.01 in 10.0 mi Calm Calm - N/A   Clear
7:14 AM 64.4 °F - 55.0 °F 72% 30.02 in 10.0 mi Calm Calm - N/A   Clear
7:33 AM 66.0 °F - 56.1 °F 70% 30.02 in 10.0 mi Calm Calm - N/A   Clear
7:54 AM 68.4 °F - 55.0 °F 62% 30.02 in 10.0 mi Calm Calm - N/A   Clear
8:13 AM 69.8 °F - 55.2 °F 60% 30.03 in 10.0 mi South 3.5 mph - N/A   Clear
8:34 AM 71.2 °F - 55.6 °F 58% 30.03 in 10.0 mi SSW 3.5 mph - N/A   Clear
8:54 AM 73.0 °F - 56.1 °F 55% 30.02 in 10.0 mi SSW 5.8 mph - N/A   Clear
9:14 AM 74.8 °F - 57.0 °F 54% 30.03 in 10.0 mi SW 4.6 mph - N/A   Clear
9:34 AM 76.6 °F - 57.2 °F 51% 30.03 in 10.0 mi SW 4.6 mph - N/A   Clear
9:54 AM 77.7 °F - 57.4 °F 49% 30.04 in 10.0 mi SSW 4.6 mph - N/A   Scattered Clouds
10:15 AM 79.0 °F - 57.4 °F 47% 30.04 in 10.0 mi Calm Calm - N/A   Scattered Clouds
10:34 AM 80.4 °F 80.7 °F 57.4 °F 45% 30.04 in 10.0 mi Calm Calm - N/A   Scattered Clouds
10:54 AM 81.9 °F 81.8 °F 57.9 °F 44% 30.04 in 10.0 mi Calm Calm - N/A   Scattered Clouds
11:14 AM 82.8 °F 82.5 °F 58.3 °F 43% 30.04 in 10.0 mi SSW 4.6 mph - N/A   Clear
11:34 AM 84.4 °F 83.8 °F 58.3 °F 41% 30.04 in 10.0 mi Calm Calm - N/A   Clear
11:54 AM 85.5 °F 84.3 °F 56.1 °F 37% 30.04 in 10.0 mi SW 4.6 mph - N/A   Scattered Clouds
12:14 PM 86.0 °F 84.7 °F 56.3 °F 36% 30.04 in 10.0 mi SSW 4.6 mph - N/A   Scattered Clouds
12:34 PM 86.0 °F 84.7 °F 56.1 °F 36% 30.04 in 10.0 mi SSW 6.9 mph - N/A   Scattered Clouds
12:54 PM 86.4 °F 84.5 °F 54.0 °F 33% 30.04 in 10.0 mi SSW 3.5 mph - N/A   Scattered Clouds
1:14 PM 86.9 °F 84.9 °F 53.6 °F 32% 30.04 in 10.0 mi SSW 3.5 mph - N/A   Scattered Clouds
1:34 PM 86.9 °F 84.9 °F 53.8 °F 32% 30.03 in 10.0 mi SW 4.6 mph - N/A   Scattered Clouds
1:54 PM 88.5 °F - 52.7 °F 29% 30.02 in 10.0 mi SSW 5.8 mph - N/A   Scattered Clouds
2:14 PM 87.8 °F 85.7 °F 54.0 °F 31% 30.02 in 10.0 mi SSW 5.8 mph - N/A   Clear
2:34 PM 88.2 °F - 52.5 °F 29% 30.01 in 10.0 mi SSE 9.2 mph - N/A   Scattered Clouds
2:54 PM 89.1 °F - 52.7 °F 29% 30.00 in 10.0 mi SSE 3.5 mph - N/A   Scattered Clouds
3:14 PM 89.4 °F - 52.0 °F 28% 29.99 in 10.0 mi SSW 5.8 mph - N/A   Scattered Clouds
3:34 PM 89.8 °F - 52.7 °F 28% 29.98 in 10.0 mi SSE 8.1 mph 17.3 mph N/A   Scattered Clouds
3:54 PM 90.0 °F - 52.2 °F 27% 29.97 in 10.0 mi SSW 12.7 mph - N/A   Scattered Clouds
4:14 PM 89.8 °F - 51.4 °F 27% 29.97 in 10.0 mi SSE 6.9 mph - N/A   Clear
4:34 PM 90.5 °F - 51.4 °F 26% 29.97 in 10.0 mi SW 11.5 mph - N/A   Scattered Clouds
4:54 PM 88.0 °F - 51.4 °F 28% 29.96 in 10.0 mi SSW 8.1 mph - N/A   Scattered Clouds
5:14 PM 89.6 °F - 51.4 °F 27% 29.96 in 10.0 mi SSW 10.4 mph - N/A   Clear
5:34 PM 90.7 °F - 49.5 °F 24% 29.96 in 10.0 mi SSE 9.2 mph 18.4 mph N/A   Clear
5:54 PM 87.8 °F - 50.0 °F 27% 29.96 in 10.0 mi SSE 6.9 mph - N/A   Scattered Clouds
6:14 PM 89.8 °F - 50.4 °F 26% 29.96 in 10.0 mi SSE 8.1 mph - N/A   Scattered Clouds
6:34 PM 89.8 °F - 49.5 °F 25% 29.96 in 10.0 mi South 12.7 mph 19.6 mph N/A   Scattered Clouds
6:54 PM 88.7 °F - 50.0 °F 26% 29.95 in 10.0 mi South 9.2 mph - N/A   Clear
7:14 PM 87.8 °F - 49.6 °F 27% 29.95 in 10.0 mi SSE 10.4 mph - N/A   Clear
7:34 PM 86.7 °F - 49.8 °F 28% 29.95 in 10.0 mi SSE 4.6 mph - N/A   Clear
7:54 PM 86.9 °F - 50.0 °F 28% 29.95 in 10.0 mi SSE 5.8 mph - N/A   Clear
8:14 PM 85.3 °F - 50.0 °F 29% 29.95 in 10.0 mi SSE 4.6 mph - N/A   Clear
8:34 PM 83.8 °F - 50.2 °F 31% 29.95 in 7.0 mi ENE 4.6 mph - N/A   Clear
8:54 PM 82.0 °F - 50.9 °F 34% 29.95 in 10.0 mi South 4.6 mph - N/A   Clear
9:14 PM 80.1 °F - 51.8 °F 37% 29.95 in 10.0 mi Calm Calm - N/A   Clear
9:34 PM 79.0 °F - 52.9 °F 40% 29.95 in 4.0 mi Calm Calm - N/A   Haze
9:53 PM 76.8 °F - 55.0 °F 47% 29.96 in 10.0 mi Calm Calm - N/A   Clear
10:14 PM 77.9 °F - 54.0 °F 43% 29.96 in 10.0 mi SE 5.8 mph - N/A   Clear
10:34 PM 79.0 °F - 52.9 °F 40% 29.96 in 10.0 mi SSE 6.9 mph - N/A   Clear
10:54 PM 78.8 °F - 53.2 °F 41% 29.96 in 10.0 mi SSE 5.8 mph - N/A   Clear
11:14 PM 78.8 °F - 54.5 °F 43% 29.95 in 10.0 mi SSE 6.9 mph - N/A   Clear
11:34 PM 78.3 °F - 55.0 °F 45% 29.95 in 10.0 mi SSE 6.9 mph - N/A   Clear
11:54 PM 77.9 °F - 55.4 °F 46% 29.95 in 10.0 mi SSE 6.9 mph - N/A   Clear